Theta_e
283 282 282 282 282 281 281 280 276 272 274 278 277 280 280 280 280 279 279 281 284 285 286 286 287 288 289 290 291 292 293 294 295 296 297 298 300 301
282 281 281 281 280 280 280 279 277 275 272 277 276 277 278 278 279 278 277 280 281 282 283 284 285 286 287 288 289 290 291 292 293 293 294 295 297 298
280 279 279 279 278 278 277 277 277 276 273 274 276 276 275 275 276 276 277 276 277 280 281 283 284 284 285 286 287 287 288 289 290 291 292 293 294 296
278 278 277 278 278 276 276 276 275 275 274 272 274 274 274 275 274 274 275 276 275 278 281 281 282 283 283 284 284 285 286 287 287 288 289 290 291 292
278 277 276 276 275 275 275 275 275 276 274 273 271 273 273 274 273 274 274 273 275 278 279 279 280 281 281 282 283 283 284 284 285 286 287 288 289 290
278 277 276 276 275 275 275 275 275 274 274 272 272 272 272 273 273 271 270 272 272 274 276 277 278 278 279 280 281 280 281 282 284 285 285 286 286 287
277 276 276 277 278 278 276 275 275 274 273 272 271 270 270 270 270 271 269 270 271 272 271 272 272 272 274 277 276 278 281 282 283 283 284 284 285 286
275 275 275 276 276 277 278 279 278 274 272 272 270 269 270 271 270 269 269 267 265 271 269 268 271 270 272 272 277 279 280 281 282 282 283 284 285 285
275 275 275 275 275 275 276 279 277 277 277 273 270 270 270 270 270 269 268 267 266 268 268 265 269 268 270 273 276 279 279 280 281 282 282 282 283 283
275 275 274 274 275 275 276 275 274 274 274 273 272 273 272 271 271 270 268 267 266 266 267 262 266 266 269 270 276 277 279 279 280 280 280 281 282 283
275 275 274 274 276 278 276 273 272 271 274 275 276 275 274 273 271 268 263 262 260 262 265 264 266 265 267 268 271 276 277 278 277 278 280 281 282 284
274 274 275 275 277 278 275 272 268 269 270 269 267 267 268 267 269 267 265 260 260 258 264 262 263 264 262 267 270 271 271 274 276 277 278 280 281 281
272 272 273 275 277 278 276 270 269 272 267 264 263 263 264 264 264 265 265 263 259 259 264 265 262 262 263 264 267 268 269 270 270 272 277 278 280 280
272 272 272 276 276 275 272 272 272 269 263 261 261 261 261 261 262 262 262 262 263 262 264 264 262 262 262 263 263 266 267 268 270 270 272 275 276 278
273 274 275 274 271 268 269 269 266 262 261 259 259 260 261 261 261 260 261 261 261 262 263 262 262 263 263 263 263 264 265 266 268 269 269 270 271 272
273 267 269 268 266 266 263 263 262 261 260 259 259 260 260 259 259 260 259 259 258 258 261 262 263 262 261 263 264 262 264 264 267 268 269 270 271 273
264 259 260 260 259 259 259 259 259 259 258 258 258 258 258 258 258 258 258 257 256 256 257 259 262 262 263 264 261 263 264 264 266 267 268 268 270 273
255 252 256 258 257 257 257 257 257 257 257 257 257 257 256 256 256 256 257 256 255 255 256 258 259 259 261 262 267 263 264 264 266 269 269 268 269 274
252 251 256 257 256 256 256 256 255 256 256 256 255 256 256 255 255 255 255 255 255 255 256 257 258 259 256 255 262 268 263 265 267 267 269 270 269 274
253 253 254 253 253 254 254 254 254 254 254 254 254 254 254 254 254 253 254 254 254 254 255 256 258 259 257 257 259 262 269 265 266 265 267 271 273 279
254 251 251 250 251 252 253 253 253 253 253 253 253 253 254 254 253 253 254 254 254 254 253 255 258 263 262 262 259 260 263 269 269 266 268 271 269 270
251 250 250 249 249 249 251 252 252 252 252 252 253 253 253 254 253 253 253 253 253 253 254 256 259 260 260 259 258 259 260 263 267 270 272 274 271 267
252 250 249 248 248 248 248 250 251 252 252 253 253 253 253 253 253 253 253 253 253 253 254 255 258 259 259 260 259 259 259 260 262 262 264 272 277 280
Wind_Speed
6 5 4 4 4 4 4 4 4 5 3 1 6 6 9 9 13 12 13 23 27 27 29 30 30 30 32 32 32 32 34 33 32 31 31 31 31 29
5 6 4 4 3 3 4 4 3 3 5 4 8 10 9 9 12 12 12 21 22 24 27 28 30 32 31 31 31 31 34 35 35 33 32 31 32 31
4 5 5 4 4 5 4 4 4 4 7 9 9 9 12 11 11 10 12 11 9 22 26 28 30 29 29 29 30 32 33 34 34 35 34 32 32 31
5 5 6 6 5 5 4 5 5 6 8 15 12 11 13 14 13 14 10 9 11 18 28 30 28 27 28 31 33 32 32 32 32 33 36 34 32 32
5 6 6 6 5 5 5 5 5 8 7 9 12 10 10 11 13 11 12 12 10 22 26 25 24 31 32 31 30 31 31 32 32 33 32 35 33 33
4 4 5 5 5 6 6 7 8 8 9 9 11 11 11 12 11 15 14 11 12 13 17 20 30 30 29 28 29 31 32 33 33 34 35 36 37 37
3 6 6 5 11 10 7 8 9 9 9 9 10 11 11 13 14 13 15 15 12 12 12 13 14 13 13 21 24 29 32 35 36 37 36 37 38 37
5 4 6 4 8 13 16 17 14 11 12 10 10 12 14 13 12 14 14 15 15 2 17 18 12 14 13 12 27 33 35 37 37 36 35 34 36 36
4 6 8 7 7 7 15 17 13 19 17 13 14 12 14 14 15 17 16 16 16 14 14 19 12 16 13 14 30 34 35 35 34 37 37 38 39 38
4 4 6 9 8 11 12 10 11 10 10 10 12 13 13 16 15 14 17 17 16 11 10 15 13 16 15 15 30 32 31 36 35 38 38 38 37 36
6 5 7 8 12 19 12 13 12 10 14 20 20 24 27 25 20 12 11 12 15 15 12 11 10 18 15 18 12 28 35 31 38 37 37 38 39 37
5 7 11 13 18 20 13 11 11 13 13 10 11 14 14 14 20 11 10 12 12 12 2 11 16 13 13 12 13 14 14 29 34 36 37 37 38 17
5 7 6 17 20 22 23 10 14 18 12 11 11 9 9 9 8 8 10 10 12 13 16 15 16 15 11 19 14 14 15 16 18 20 29 34 34 31
6 6 8 19 21 22 19 22 24 16 9 9 10 10 10 9 9 10 12 11 11 17 20 15 13 15 16 18 19 15 16 15 15 17 15 25 34 34
6 12 15 18 19 13 17 21 14 8 8 9 10 10 10 11 13 12 11 13 13 14 14 16 13 15 14 16 18 18 22 14 15 14 17 16 17 16
10 5 10 13 13 13 8 9 7 7 8 9 10 11 11 10 11 11 12 12 13 12 12 14 15 15 15 14 15 17 15 16 16 17 17 19 17 15
3 2 6 6 7 7 7 7 7 7 8 8 10 11 11 11 11 11 11 12 12 14 14 13 15 16 14 16 15 14 14 17 15 18 20 19 18 17
4 2 4 5 6 7 8 8 7 8 8 9 10 9 10 11 12 11 10 11 13 13 14 14 15 16 14 9 13 14 14 15 17 19 18 16 18 18
2 2 4 6 6 7 7 7 9 8 9 8 9 9 10 10 13 11 11 11 12 12 13 13 13 12 16 18 16 16 16 15 16 17 16 16 17 18
1 3 4 4 5 6 7 7 8 8 8 8 9 9 9 10 11 11 11 12 12 13 14 12 12 12 14 16 19 19 29 16 14 15 16 16 16 25
3 3 4 4 5 5 6 7 8 9 9 9 8 8 9 8 10 10 11 15 15 11 13 13 13 23 13 13 12 14 13 26 22 16 16 14 13 11
4 4 5 5 5 5 6 6 7 8 8 8 9 9 8 8 10 11 10 11 11 11 13 12 14 12 12 12 13 16 13 14 21 26 23 22 8 7
4 4 4 5 5 5 5 6 7 9 8 9 9 9 9 10 9 10 10 10 11 12 13 13 12 11 11 11 14 12 17 15 12 13 10 29 27 23
Wind_Direction
35 34 37 25 36 23 12 27 10 329 320 297 346 348 333 328 324 332 330 323 329 329 331 329 327 327 326 323 321 320 317 315 313 310 308 306 306 302
44 38 29 27 9 16 15 18 21 327 295 336 313 316 319 319 320 325 318 320 321 324 324 322 323 322 319 318 316 317 315 312 311 309 307 305 301 298
33 46 28 24 21 18 1 1 352 333 306 313 312 315 326 323 320 323 318 315 315 317 318 318 318 315 316 314 315 313 312 309 307 307 305 302 299 295
31 36 26 14 28 4 344 1 341 326 320 319 323 326 328 329 324 320 316 317 317 314 319 318 315 316 316 315 311 307 306 305 304 305 304 301 298 293
34 32 13 1 6 349 332 345 328 333 330 316 318 319 319 321 320 317 324 322 317 319 311 315 312 321 312 309 311 309 307 304 302 301 296 296 298 295
36 18 6 348 354 340 351 333 336 329 333 325 312 317 323 328 319 324 324 324 323 319 314 315 319 314 309 309 311 309 309 305 299 303 306 303 297 294
20 7 358 343 351 352 335 329 330 332 329 317 314 318 322 327 328 328 315 319 324 309 314 315 313 306 304 310 307 306 304 308 307 301 299 295 291 287
350 351 337 334 338 338 333 325 327 329 316 317 314 310 312 319 322 319 315 319 319 340 326 308 312 303 305 302 303 308 307 306 304 301 296 294 293 289
332 335 338 330 327 323 313 316 325 319 316 315 308 303 312 323 319 313 314 307 304 320 312 302 318 301 306 298 305 305 307 303 306 305 305 302 295 289
311 304 326 322 318 312 308 326 317 316 313 306 295 303 314 318 311 313 309 309 301 304 307 291 314 298 309 298 303 303 306 307 307 308 303 299 294 289
316 336 313 306 299 308 327 322 317 311 305 302 313 315 314 315 314 313 313 314 309 309 313 288 312 308 305 300 297 310 307 308 308 305 300 304 299 294
319 312 311 319 312 310 333 328 321 312 308 332 318 316 313 305 313 308 311 302 305 307 356 316 308 323 307 296 308 304 309 308 306 307 303 302 303 296
318 312 310 313 306 329 331 332 309 317 342 327 317 309 307 304 305 304 303 296 297 282 291 304 305 303 286 303 303 310 304 310 302 297 297 302 299 302
305 301 292 302 329 330 330 321 323 344 328 315 312 310 312 312 308 304 296 285 280 282 295 293 289 296 298 299 304 310 306 302 298 296 297 301 298 293
297 297 341 333 333 333 328 328 341 322 317 312 309 305 309 308 309 304 299 296 290 288 289 291 290 294 295 293 300 304 309 307 292 305 301 297 293 289
307 7 335 340 340 333 325 327 318 313 312 307 305 305 309 312 312 314 313 314 310 310 299 299 299 299 299 289 298 298 302 298 311 305 300 296 290 277
66 14 353 345 338 331 324 320 318 316 312 310 308 309 309 311 312 318 314 313 310 314 314 314 308 301 292 290 296 296 303 304 306 305 304 302 294 283
39 9 331 324 317 316 315 312 311 306 307 309 305 305 307 310 310 314 311 311 308 310 310 313 316 316 313 293 290 314 304 309 308 311 312 304 300 299
51 324 306 307 303 307 303 305 305 302 303 298 301 303 306 306 310 310 311 309 307 307 307 309 312 319 322 316 315 315 313 313 314 317 318 319 307 311
240 260 276 280 280 287 294 295 296 298 299 299 299 300 301 301 304 306 307 310 310 308 307 309 310 318 318 308 311 310 320 317 322 316 318 321 312 326
269 275 264 263 267 270 279 286 287 291 294 297 295 295 296 296 296 298 301 306 308 305 305 306 307 310 306 300 308 316 320 324 324 318 314 326 332 326
260 256 260 257 259 260 270 278 288 291 293 293 293 292 291 290 293 297 299 303 304 301 296 299 305 319 317 318 315 317 319 320 324 329 320 343 333 324
257 253 264 262 256 260 268 281 285 287 289 290 292 294 294 293 292 289 292 294 296 300 302 307 311 322 317 319 317 319 323 325 327 332 324 344 344 49